Preview of NWS' New Version of Forecast
This preview is not operational and should not be used for support decisions.

Regional Weather Roundup (RWR)

Issued by National Weather Service (NWS)

                            
000
ASUS43 KMKX 181100
RWRWI 

WISCONSIN REGIONAL WEATHER ROUNDUP
NATIONAL WEATHER SERVICE MILWAUKEE/SULLIVAN WI
600 AM CDT TUE JUN 18 2019

NOTE: "FAIR" INDICATES FEW OR NO CLOUDS BELOW 12,000 FEET WITH NO
SIGNIFICANT WEATHER AND/OR OBSTRUCTIONS TO VISIBILITY.

WIZ001-002-006>008-014>016-023>028-181200-
NORTHWEST WISCONSIN
  
CITY           SKY/WX    TMP DP  RH WIND       PRES   REMARKS
SUPERIOR ARPT  CLOUDY    48  47  97 CALM      29.96F                  
ASHLAND        FOG       53  53 100 CALM      29.96S VSB 1/4          
HAYWARD        FOG       49  49 100 CALM      29.97S VSB 1/4          
SIREN          FAIR      45  43  93 CALM      29.97F                  
CUMBERLAND     FAIR      46  46 100 CALM      29.98S                  
RICE LAKE      HAZE      50  45  81 CALM      29.99R VSB 1            
CHETEK         FAIR      51  51 100 CALM      29.97S                  
LADYSMITH        N/A     51  51  99 CALM      29.98S FOG              
EAU CLAIRE     FAIR      57  57 100 CALM      29.95S                  
MENOMONIE      FAIR      52  50  93 W3        29.97S                  
NEW RICHMOND     N/A     51  51  99 CALM      29.98S FOG              
OSCEOLA        FAIR      49  49  98 CALM      30.01R                  
$$
 
WIZ003>005-009-010-017-018-181200-
NORTH CENTRAL WISCONSIN
  
CITY           SKY/WX    TMP DP  RH WIND       PRES   REMARKS
MANITOWISH WTR FOG       50  50 100 CALM      29.96S VSB 1/2          
ARBOR VITAE    CLOUDY    57  55  93 CALM      29.96R                  
WOODRUFF       CLOUDY    57  55  93 CALM      29.96R                  
RHINELANDER    NOT AVBL                                               
EAGLE RIVER    CLOUDY    59  58  97 W5        29.96S                  
LAND O LAKES   CLOUDY    55  55 100 CALM      29.97S                  
PHILLIPS       FOG       53  53 100 CALM      29.96S VSB<1/4          
TOMAHAWK       CLOUDY    58  57  97 CALM      29.97S                  
MEDFORD        CLOUDY    58  58  97 CALM      29.96S FOG              
MERRILL        CLOUDY    59  59 100 CALM      29.96S                  
$$
 
WIZ029-030-035-036-043>047-181200-
CENTRAL WISCONSIN
  
CITY           SKY/WX    TMP DP  RH WIND       PRES   REMARKS
WAUSAU         NOT AVBL                                               
MOSINEE        CLOUDY    59  57  94 CALM      29.97F                  
MARSHFIELD     NOT AVBL                                               
STEVENS POINT  FAIR      59  59 100 CALM      29.96F                  
WAUPACA        CLOUDY    62  60  92 CALM      29.96S                  
WAUTOMA        NOT AVBL                                               
WISC RAPIDS    NOT AVBL                                               
CAMP DOUGLAS   NOT AVBL                                               
$$
 
WIZ011>013-019>022-031-037>040-048>050-181200-
NORTHEAST WISCONSIN
  
CITY           SKY/WX    TMP DP  RH WIND       PRES   REMARKS
ANTIGO         CLOUDY    58  58 100 CALM      29.97F                  
SHAWANO        CLOUDY    62  56  80 CALM      29.96S                  
OCONTO         CLOUDY    57  56  95 CALM      29.96R                  
STURGEON BAY   NOT AVBL                                               
GREEN BAY      CLOUDY    59  55  87 CALM      29.96S                  
MANITOWOC      MOCLDY    55  51  86 CALM      29.97S                  
APPLETON       CLOUDY    59  52  77 CALM      29.95S                  
CLINTONVILLE   CLOUDY    61  56  83 CALM      29.95F                  
OSHKOSH        NOT AVBL                                               
$$
 
WIZ032>034-041-042-053>061-181200-
SOUTHWEST WISCONSIN
  
CITY           SKY/WX    TMP DP  RH WIND       PRES   REMARKS
LA CROSSE      CLOUDY    67  62  84 SE3       29.95S                  
SPARTA         CLOUDY    55  55 100 CALM      29.97S                  
VIROQUA        CLOUDY    62  62 100 CALM      29.97F                  
BOSCOBEL       CLOUDY    60  58  92 CALM      29.97S                  
PRAIRIE DU CHI DRIZZLE   62  61  96 CALM      29.97S                  
PLATTEVILLE    CLOUDY    60  60 100 CALM      29.99R                  
$$

WIZ056-057-062-063-064-067-068-181200-
SOUTH CENTRAL WISCONSIN
  
CITY           SKY/WX    TMP DP  RH WIND       PRES   REMARKS
REEDSBURG      CLOUDY    59  59 100 CALM      29.96S                  
BARABOO/DELLS  CLOUDY    60  59  95 CALM      29.96S                  
LONE ROCK      NOT AVBL                                               
MINERAL POINT  CLOUDY    61  61 100 CALM      29.98S FOG              
MADISON        MOCLDY    57  55  93 CALM      29.96S FOG              
MIDDLETON      CLOUDY    57  57 100 CALM      29.97F                  
WATERTOWN      FAIR      55  55 100 CALM      29.97F FOG              
MONROE         FAIR      58  57  96 CALM      29.98S                  
JANESVILLE     PTCLDY    55  55 100 CALM      29.97F FOG              
$$
 
WIZ051-052-058>065-066-070>072-181200-
SOUTHEAST WISCONSIN
  
CITY           SKY/WX    TMP DP  RH WIND       PRES   REMARKS
MILWAUKEE      FOG       55  53  93 SW5       29.98S VSB 1/4          
WAUKESHA       FOG       52  52 100 CALM      29.99S VSB 1/2          
MILWAUKEE/TIMM FAIR      50  46  87 CALM      29.99S                  
RACINE         CLOUDY    56  53  90 CALM      30.00S                  
KENOSHA        CLOUDY    57  55  93 CALM      29.98S                  
FOND DU LAC    MOCLDY    58  55  90 S6        29.96F                  
SHEBOYGAN      FAIR      54  51  90 CALM      29.96F                  
WEST BEND      FAIR      52  52 100 CALM      29.98S                  
JUNEAU         FAIR      55  55  97 CALM      29.98F FOG              
$$

LSZ147-162-181200-
LAKE SUPERIOR
  
STATION/POSITION TIME  TEMP    WIND        PRES    WAVE
                       AIR SEA DIR/SP/G            HT/PER
                 (UTC) (F)     (DEG/KT/KT) (MB)    (FT/S)
W MID LAKE BUOY  0950   40 38   20/  8/  8 1014.5F   1
$$
 
LMZ867-665-643>646-181200-
LAKE MICHIGAN
  
STATION/POSITION TIME  TEMP    WIND        PRES    WAVE
                       AIR SEA DIR/SP/G            HT/PER
                 (UTC) (F)     (DEG/KT/KT) (MB)    (FT/S)
S GREEN BAY BUOY 1030   60 62  210/  4/  4 1014.8R
N MID LAKE BUOY  1040   47 39  150/  6/  8 1015.4F
NORTHPORT PIER   1040   55      CALM  /  2 1014.2F
SHEBOYGAN LAKESH 1000   55     220/  6/  7 1014.9F
ATWATER BUOY     1000   52 52  190/  2/  2 1015.5    0
MILWAUKEE LAKESH 1030   55     230/  5/  5   N/A
S MID LAKE BUOY  1040   47 45  270/  4/  4 1016.0R
KENOSHA   LAKESH 1000   57     250/  1/  3 1015.2
$$

TC  - TEMPERATURE IN CELSIUS
VSB - VISIBILITY IN STATUTE MILES
WCI - WIND CHILL INDEX
HX  - HEAT INDEX